Flag for Canada Weather past 2 weeks in Riverview, New Brunswick, Canada

Now
57 °F

Partly sunny.


Feels Like: 55 °F
Forecast: 57 / 75 °F
Wind: 9 mph from Southwest

Location: Moncton

Current Time: Jul 3, 2015 at 8:46:54 AM

Latest Report: Jul 3, 2015 at 8:00 AM


Visibility: 15 mi

Pressure: 29.82 "Hg

Humidity: 82%

Dew point: 52 °F

Location of RiverviewLocation

Historic Weather in Riverview — Graph

°F

Riverview temperature yesterday

Maximum temperature yesterday: 77 °F (at 5:00 PM)
Minimum temperature yesterday: 61 °F (at 11:00 PM)
Average temperature yesterday: 69 °F

Past Weeks' High & Low Weather Summary

 TemperatureHumidityPressure
High77 °F (Jul 2, 5:00 PM)100% (Jun 20, 12:00 AM)30.18 "Hg (Jun 20, 12:00 AM)
Low43 °F (Jun 21, 6:00 AM)33% (Jun 18, 3:00 PM)29.64 "Hg (Jun 24, 7:00 AM)
Average59 °F77%29.91 "Hg
* Reported Jun 18 8:00 AM — Jul 3 8:00 AM, Riverview, Weather by CustomWeather, © 2015

Note: Actual official high and low records may vary slightly from our data, if they occured in-between our weather recording intervals... More about our weather records

Advertising

Riverview weather history for previous 24 hours

 ConditionsComfort  
Time TempWeatherWind HumidityBarometerVisibility
8:00 AM
Fri, Jul 3
57 °FPartly sunny.9 mph82%29.82 "Hg15 mi
7:00 AM57 °FPartly sunny.12 mph82%29.83 "Hg15 mi
6:00 AM55 °FPartly cloudy.10 mph88%29.82 "Hg15 mi
5:00 AM54 °FMostly cloudy.3 mph94%29.81 "Hg15 mi
4:00 AM55 °FOvercast.7 mph88%29.81 "Hg15 mi
3:00 AM55 °FPassing clouds.6 mph94%29.80 "Hg15 mi
2:00 AM57 °FPassing clouds.7 mph88%29.81 "Hg15 mi
1:00 AM59 °FPassing clouds.6 mph82%29.81 "Hg15 mi
12:00 AM61 °FPassing clouds.8 mph83%29.81 "Hg15 mi
11:00 PM
Thu, Jul 2
61 °FPassing clouds.5 mph83%29.80 "Hg15 mi
10:00 PM64 °FPartly sunny.9 mph73%29.79 "Hg15 mi
9:00 PM68 °FPassing clouds.9 mph64%29.76 "Hg15 mi
8:00 PM72 °FPassing clouds.13 mph57%29.75 "Hg15 mi
7:00 PM73 °FPassing clouds.14 mph53%29.74 "Hg15 mi
6:00 PM75 °FPassing clouds.21 mph50%29.73 "Hg15 mi
5:00 PM77 °FPassing clouds.21 mph47%29.72 "Hg15 mi
4:00 PM75 °FPartly sunny.16 mph54%29.72 "Hg15 mi
3:00 PM73 °FPartly sunny.17 mph61%29.72 "Hg15 mi
2:00 PM75 °FBroken clouds.17 mph57%29.72 "Hg15 mi
1:00 PM75 °FPartly sunny.18 mph61%29.71 "Hg15 mi
12:00 PM72 °FPartly sunny.17 mph69%29.71 "Hg15 mi
11:00 AM72 °FPartly sunny.13 mph73%29.71 "Hg15 mi
10:00 AM68 °FOvercast.13 mph78%29.72 "Hg15 mi
9:00 AM66 °FOvercast.10 mph88%29.71 "Hg15 mi
8:00 AM64 °FOvercast.8 mph88%29.71 "Hg12 mi
Weather by CustomWeather, © 2015

See weather overviewHow to use our weather pages